Weather History for Perry, FL

Change the Weather History Date:

Saturday, February 16, 2013

  Actual Average (KCTY) Record (KCTY)
Temperature  
Mean Temperature 47 °F 57 °F  
Max Temperature 55 °F 70 °F 80 °F (2001)
Min Temperature 35 °F 44 °F 26 °F (2007)
Degree Days  
Heating Degree Days 18 8  
Month to date heating degree days 151  
Since 1 July heating degree days 1029  
Cooling Degree Days 0 0  
Month to date cooling degree days 12  
Year to date cooling degree days 23  
Moisture  
Dew Point 32 °F    
Average Humidity 60    
Maximum Humidity 89    
Minimum Humidity 29    
Precipitation  
Precipitation 0.00 in 0.12 in 0.03 in (2005)
Month to date precipitation 1.53  
Year to date precipitation 5.57  
Sea Level Pressure  
Sea Level Pressure 30.04 in    
Wind  
Wind Speed 5 mph (NW)    
Max Wind Speed 18 mph    
Max Gust Speed 31 mph    
T = Trace of Precipitation, MM = Missing Value Source: NWS Daily Summary

Daily Weather History Graph

Daily Weather History Graph

Search for Another Location

Airport:

Trip Planner

Search our weather history database for the weather conditions in past years. The results will help you decide how hot, cold, wet, or windy it might be!

Date:

Astronomy

Feb. 16, 2013 Rise Set
Actual Time 7:13 AM EST 6:23 PM EST
Civil Twilight 6:48 AM EST 6:48 PM EST
Nautical Twilight 6:20 AM EST 7:16 PM EST
Astronomical Twilight 5:52 AM EST 7:44 PM EST
Moon 10:56 AM EST (2/16) No Moon Set
Length of Visible Light 11h 59m
Length of Day
11h 10m
Waxing Crescent, 39% of the Moon is Illuminated
Feb 16
Waxing Crescent
Feb 17
First Quarter
Feb 25
Full
Mar 4
Last Quarter
Mar 11
New

Hourly Weather History & Observations

Time (EST) Temp. Windchill Dew Point Humidity Pressure Visibility Wind Dir Wind Speed Gust Speed Precip Events Conditions
12:53 AM 44.1 °F - 41.0 °F 89% 30.02 in - Calm Calm - N/A   Unknown
1:53 AM 44.1 °F - 39.9 °F 85% 30.01 in - Calm Calm - N/A   Unknown
2:53 AM 44.1 °F - 41.0 °F 89% 29.99 in - Calm Calm - N/A   Unknown
3:53 AM 45.0 °F - 41.0 °F 86% 29.97 in - Calm Calm - N/A   Unknown
4:53 AM 44.1 °F - 39.9 °F 85% 29.96 in - Calm Calm - N/A   Unknown
5:53 AM 44.1 °F - 39.9 °F 85% 29.96 in - Calm Calm - N/A   Unknown
6:53 AM 45.0 °F - 39.0 °F 80% 29.96 in - Calm Calm - N/A   Unknown
7:53 AM 45.0 °F 41.2 °F 39.0 °F 80% 29.98 in - NW 6.9 mph - N/A   Unknown
8:53 AM 48.0 °F - 39.9 °F 74% 30.00 in - NW 5.8 mph - N/A   Unknown
9:53 AM 52.0 °F - 39.9 °F 63% 30.03 in - NNW 11.5 mph - N/A   Unknown
10:53 AM 52.0 °F - 35.1 °F 53% 30.05 in - NNW 17.3 mph 31.1 mph N/A   Unknown
11:53 AM 50.0 °F - 37.0 °F 61% 30.07 in - NW 12.7 mph 19.6 mph N/A   Unknown
12:53 PM 46.9 °F - 37.9 °F 71% 30.05 in - WNW 6.9 mph - N/A   Unknown
1:53 PM 53.1 °F - 37.0 °F 55% 30.02 in - WNW 11.5 mph - N/A   Unknown
2:53 PM 54.0 °F - 30.9 °F 41% 29.99 in - WNW 13.8 mph 24.2 mph N/A   Unknown
3:53 PM 55.0 °F - 28.0 °F 35% 29.98 in - WNW 16.1 mph 24.2 mph N/A   Unknown
4:53 PM 55.0 °F - 23.0 °F 29% 29.99 in - WNW 18.4 mph 28.8 mph N/A   Unknown
5:53 PM 53.1 °F - 23.0 °F 31% 30.01 in - NW 15.0 mph 20.7 mph N/A   Unknown
6:53 PM 48.0 °F - 21.9 °F 36% 30.06 in - NW 9.2 mph - N/A   Unknown
7:53 PM 46.9 °F - 19.9 °F 34% 30.09 in - NW 10.4 mph 19.6 mph N/A   Unknown
8:53 PM 43.0 °F 39.5 °F 18.0 °F 37% 30.13 in - WNW 5.8 mph - N/A   Unknown
9:53 PM 39.0 °F 34.8 °F 18.0 °F 43% 30.17 in - WNW 5.8 mph - N/A   Unknown
10:53 PM 39.0 °F 33.4 °F 16.0 °F 39% 30.19 in - NW 8.1 mph - N/A   Unknown
11:53 PM 35.1 °F 30.1 °F 17.1 °F 48% 30.20 in - WNW 5.8 mph - N/A   Unknown